| time (UTC) | temp F | wind direction | speed MPH | gust MPH | rain 1hr in | rain 24hr in | rain mn in | humidity % | barometer mb |
| 20260906101532 | 70 | 360 | 2.0 | 5.0 | 0.00 | 0.04 | 0.00 | 95 | 1012.7 |
| 20260906100037 | 70 | 5 | 1.0 | 5.0 | 0.00 | 0.04 | 0.00 | 94 | 1012.4 |
| 20260906094533 | 70 | 355 | 1.0 | 5.0 | 0.00 | 0.04 | 0.00 | 94 | 1012.1 |
| 20260906093030 | 71 | 345 | 1.0 | 4.0 | 0.00 | 0.04 | 0.00 | 94 | 1011.9 |
| 20260906091528 | 71 | 329 | 1.0 | 4.0 | 0.00 | 0.04 | 0.00 | 93 | 1012.1 |
| 20260906090031 | 71 | 304 | 0.0 | 3.0 | 0.00 | 0.04 | 0.00 | 94 | 1012.0 |
| 20260906084535 | 71 | 304 | 0.0 | 0.0 | 0.00 | 0.04 | 0.00 | 93 | 1011.8 |
| 20260906083034 | 71 | 304 | 0.0 | 3.0 | 0.00 | 0.04 | 0.00 | 94 | 1011.8 |
| 20260906081524 | 71 | 304 | 1.0 | 4.0 | 0.00 | 0.04 | 0.00 | 93 | 1011.8 |
| 20260906080030 | 72 | 304 | 0.0 | 3.0 | 0.00 | 0.04 | 0.00 | 92 | 1011.6 |
| 20260906074532 | 72 | 303 | 0.0 | 4.0 | 0.00 | 0.04 | 0.00 | 91 | 1011.4 |
| 20260906073033 | 73 | 302 | 0.0 | 3.0 | 0.00 | 0.04 | 0.00 | 91 | 1011.3 |
| 20260906071503 | 73 | 302 | 0.0 | 2.0 | 0.00 | 0.04 | 0.00 | 91 | 1011.5 |
| 20260906070006 | 73 | 229 | 0.0 | 0.0 | 0.00 | 0.04 | 0.00 | 91 | 1011.8 |
| 20260906064508 | 73 | 229 | 0.0 | 0.0 | 0.00 | 0.04 | 0.00 | 91 | 1011.9 |
| 20260906063014 | 73 | 209 | 0.0 | 0.0 | 0.00 | 0.04 | 0.00 | 92 | 1012.1 |
| 20260906061514 | 72 | 209 | 0.0 | 0.0 | 0.00 | 0.04 | 0.00 | 93 | 1012.4 |
| 20260906060003 | 73 | 209 | 0.0 | 0.0 | 0.00 | 0.04 | 0.00 | 93 | 1012.3 |
| 20260906054505 | 73 | 209 | 0.0 | 0.0 | 0.00 | 0.04 | 0.00 | 93 | 1012.4 |
| 20260906053010 | 73 | 209 | 0.0 | 2.0 | 0.00 | 0.04 | 0.00 | 93 | 1012.3 |
| 20260906051518 | 73 | 209 | 0.0 | 2.0 | 0.00 | 0.04 | 0.00 | 94 | 1012.4 |
| 20260906050020 | 73 | 209 | 0.0 | 3.0 | 0.00 | 0.04 | 0.00 | 96 | 1012.4 |
| 20260906044505 | 72 | 134 | 0.0 | 1.0 | 0.00 | 0.04 | 0.00 | 96 | 1012.5 |
| 20260906043016 | 72 | 134 | 0.0 | 1.0 | 0.00 | 0.04 | 0.00 | 95 | 1012.7 |
| 20260906041514 | 73 | 134 | 0.0 | 2.0 | 0.00 | 0.04 | 0.00 | 96 | 1012.9 |
| 20260906040034 | 73 | 134 | 0.0 | 2.0 | 0.00 | 0.04 | 0.00 | 96 | 1012.9 |
| 20260906034524 | 73 | 134 | 0.0 | 1.0 | 0.00 | 0.04 | 0.04 | 96 | 1012.9 |
| 20260906033038 | 73 | 134 | 0.0 | 2.0 | 0.00 | 0.04 | 0.04 | 95 | 1012.8 |
| 20260906031523 | 73 | 134 | 0.0 | 0.0 | 0.00 | 0.04 | 0.04 | 95 | 1012.9 |
| 20260906030014 | 73 | 134 | 0.0 | 0.0 | 0.00 | 0.04 | 0.04 | 95 | 1012.9 |
| 20260906024523 | 73 | 134 | 0.0 | 0.0 | 0.00 | 0.04 | 0.04 | 94 | 1012.8 |
| 20260906023024 | 74 | 134 | 0.0 | 0.0 | 0.00 | 0.04 | 0.04 | 94 | 1012.7 |
| 20260906021527 | 74 | 134 | 0.0 | 0.0 | 0.00 | 0.04 | 0.04 | 95 | 1012.5 |
| 20260906020028 | 74 | 134 | 0.0 | 0.0 | 0.00 | 0.04 | 0.04 | 94 | 1012.7 |
| 20260906014529 | 74 | 134 | 0.0 | 0.0 | 0.00 | 0.04 | 0.04 | 93 | 1012.7 |
| 20260906013023 | 75 | 134 | 0.0 | 0.0 | 0.00 | 0.04 | 0.04 | 92 | 1012.4 |
| 20260906011527 | 75 | 134 | 0.0 | 2.0 | 0.00 | 0.04 | 0.04 | 92 | 1012.2 |
| 20260906010028 | 76 | 134 | 0.0 | 0.0 | 0.00 | 0.04 | 0.04 | 92 | 1011.9 |
| 20260906004518 | 76 | 134 | 0.0 | 0.0 | 0.00 | 0.04 | 0.04 | 91 | 1011.9 |
| 20260906003020 | 77 | 134 | 0.0 | 1.0 | 0.00 | 0.04 | 0.04 | 90 | 1011.8 |
| 20260906001533 | 78 | 134 | 0.0 | 0.0 | 0.00 | 0.04 | 0.04 | 87 | 1011.7 |
| 20260906000031 | 79 | 134 | 0.0 | 0.0 | 0.00 | 0.04 | 0.04 | 86 | 1011.5 |
| 20260905234531 | 80 | 134 | 0.0 | 1.0 | 0.00 | 0.04 | 0.04 | 83 | 1011.4 |
| 20260905233019 | 81 | 265 | 0.0 | 0.0 | 0.00 | 0.04 | 0.04 | 80 | 1011.5 |
| 20260905231526 | 81 | 234 | 0.0 | 2.0 | 0.00 | 0.04 | 0.04 | 79 | 1011.5 |
| 20260905230027 | 82 | 235 | 0.0 | 3.0 | 0.00 | 0.04 | 0.04 | 79 | 1011.5 |
| 20260905224605 | 82 | 277 | 2.0 | 5.0 | 0.00 | 0.04 | 0.04 | 77 | 1011.5 |
| 20260905223032 | 82 | 284 | 2.0 | 6.0 | 0.00 | 0.04 | 0.04 | 75 | 1011.4 |
| 20260905221521 | 82 | 304 | 3.0 | 8.0 | 0.00 | 0.04 | 0.04 | 76 | 1011.3 |
| 20260905220003 | 81 | 225 | 0.0 | 3.0 | 0.00 | 0.04 | 0.04 | 76 | 1011.4 |
| 20260905214507 | 80 | 225 | 0.0 | 3.0 | 0.00 | 0.04 | 0.04 | 78 | 1011.8 |
| 20260905213014 | 78 | 225 | 1.0 | 4.0 | 0.00 | 0.04 | 0.04 | 82 | 1012.1 |
| 20260905211537 | 78 | 231 | 2.0 | 4.0 | 0.00 | 0.04 | 0.04 | 80 | 1012.2 |
| 20260905210039 | 77 | 302 | 0.0 | 4.0 | 0.00 | 0.04 | 0.04 | 83 | 1012.1 |
| 20260905204505 | 76 | 302 | 1.0 | 4.0 | 0.00 | 0.04 | 0.04 | 86 | 1011.9 |
| 20260905203011 | 76 | 225 | 0.0 | 4.0 | 0.00 | 0.04 | 0.04 | 86 | 1011.8 |
| 20260905201514 | 75 | 179 | 2.0 | 7.0 | 0.00 | 0.04 | 0.04 | 86 | 1011.9 |
| 20260905200026 | 74 | 192 | 2.0 | 4.0 | 0.00 | 0.04 | 0.04 | 89 | 1012.4 |
| 20260905194526 | 72 | 183 | 2.0 | 6.0 | 0.00 | 0.04 | 0.04 | 90 | 1012.5 |
| 20260905193005 | 71 | 166 | 3.0 | 10.0 | 0.00 | 0.04 | 0.04 | 92 | 1012.4 |
| 20260905191511 | 72 | 172 | 3.0 | 6.0 | 0.04 | 0.04 | 0.04 | 94 | 1012.1 |
| 20260905190015 | 71 | 198 | 0.0 | 6.0 | 0.04 | 0.04 | 0.04 | 92 | 1011.5 |
| 20260905184529 | 72 | 232 | 2.0 | 6.0 | 0.04 | 0.04 | 0.04 | 90 | 1011.6 |
| 20260905183030 | 73 | 134 | 5.0 | 8.0 | 0.04 | 0.04 | 0.04 | 87 | 1012.1 |
| 20260905181508 | 76 | 5 | 10.0 | 31.0 | 0.00 | 0.00 | 0.00 | 79 | 1013.9 |
| 20260905180015 | 91 | 329 | 14.0 | 25.0 | 0.00 | 0.00 | 0.00 | 56 | 1013.5 |
| 20260905174524 | 93 | 280 | 5.0 | 11.0 | 0.00 | 0.00 | 0.00 | 62 | 1012.4 |
| 20260905173026 | 93 | 338 | 4.0 | 12.0 | 0.00 | 0.00 | 0.00 | 64 | 1012.4 |
| 20260905171531 | 92 | 265 | 3.0 | 12.0 | 0.00 | 0.00 | 0.00 | 64 | 1012.8 |
| 20260905170011 | 92 | 284 | 4.0 | 10.0 | 0.00 | 0.00 | 0.00 | 63 | 1013.0 |
| 20260905164524 | 91 | 306 | 3.0 | 8.0 | 0.00 | 0.00 | 0.00 | 66 | 1013.3 |
| 20260905163027 | 91 | 294 | 2.0 | 6.0 | 0.00 | 0.00 | 0.00 | 64 | 1013.3 |
| 20260905161530 | 90 | 298 | 0.0 | 9.0 | 0.00 | 0.00 | 0.00 | 65 | 1013.6 |
| 20260905160032 | 90 | 355 | 0.0 | 7.0 | 0.00 | 0.00 | 0.00 | 67 | 1013.8 |
| 20260905154531 | 89 | 171 | 1.0 | 9.0 | 0.00 | 0.00 | 0.00 | 69 | 1013.9 |
| 20260905153021 | 88 | 285 | 2.0 | 6.0 | 0.00 | 0.00 | 0.00 | 71 | 1013.9 |
| 20260905151528 | 87 | 184 | 1.0 | 5.0 | 0.00 | 0.00 | 0.00 | 74 | 1013.9 |
| 20260905150027 | 86 | 162 | 1.0 | 6.0 | 0.00 | 0.00 | 0.00 | 75 | 1014.1 |
| 20260905144532 | 85 | 305 | 0.0 | 6.0 | 0.00 | 0.00 | 0.00 | 78 | 1014.2 |
| 20260905143032 | 83 | 215 | 3.0 | 6.0 | 0.00 | 0.00 | 0.00 | 78 | 1014.1 |
| 20260905141518 | 82 | 279 | 1.0 | 5.0 | 0.00 | 0.00 | 0.00 | 80 | 1014.0 |
| 20260905140026 | 81 | 234 | 2.0 | 7.0 | 0.00 | 0.00 | 0.00 | 80 | 1013.9 |
| 20260905134529 | 80 | 184 | 3.0 | 7.0 | 0.00 | 0.00 | 0.00 | 83 | 1014.1 |
| 20260905133036 | 78 | 209 | 1.0 | 5.0 | 0.00 | 0.00 | 0.00 | 86 | 1014.2 |
| 20260905131502 | 77 | 210 | 1.0 | 4.0 | 0.00 | 0.00 | 0.00 | 88 | 1014.2 |
| 20260905130004 | 76 | 271 | 0.0 | 2.0 | 0.00 | 0.00 | 0.00 | 89 | 1014.4 |
| 20260905124506 | 75 | 270 | 0.0 | 3.0 | 0.00 | 0.00 | 0.00 | 92 | 1014.3 |
| 20260905123010 | 74 | 194 | 0.0 | 3.0 | 0.00 | 0.00 | 0.00 | 94 | 1014.3 |
| 20260905121516 | 73 | 192 | 1.0 | 3.0 | 0.00 | 0.00 | 0.00 | 95 | 1014.2 |
| 20260905120004 | 72 | 192 | 2.0 | 4.0 | 0.00 | 0.00 | 0.00 | 96 | 1014.3 |
| 20260905114504 | 71 | 191 | 1.0 | 4.0 | 0.00 | 0.00 | 0.00 | 96 | 1014.0 |
| 20260905113011 | 71 | 186 | 1.0 | 4.0 | 0.00 | 0.00 | 0.00 | 96 | 1013.9 |
| 20260905111512 | 71 | 184 | 0.0 | 0.0 | 0.00 | 0.00 | 0.00 | 96 | 1013.6 |
| 20260905110016 | 71 | 184 | 0.0 | 0.0 | 0.00 | 0.00 | 0.00 | 96 | 1013.5 |
| 20260905104504 | 72 | 184 | 0.0 | 0.0 | 0.00 | 0.00 | 0.00 | 96 | 1013.2 |
| 20260905103007 | 72 | 184 | 0.0 | 0.0 | 0.00 | 0.00 | 0.00 | 96 | 1013.3 |